Location: Newark
(7.0858°N, 171.3717°E)
Time: 19:02:48
(UTC+00:00)

A-11 Canister half - Pass Details

Date: 01 August 2021
Orbit: 1526 x 1683 km, 47.3° (Epoch: 15 September)

Event Time Altitude Azimuth Distance (km) Brightness Sun altitude
Rises 08:47:42 0° 312° (NW) 4,760 12.7 -27.3°
Reaches altitude 10° 08:50:51 10° 309° (NW) 3,756 11.9 -28.0°
Maximum altitude 09:00:07 61° 231° (SW) 1,713 9.2 -30.1°
Enters shadow 09:03:22 42° 173° (S) 2,071 9.4 -30.8°
